Free Severe Weather Alerts by Email and Text Message   

 
Follow iAlert.com on twitter @ialertcom
Search For Active Alerts in Your Area  
  Hi Guest:  [ Sign-up / Services ] [ Login ]

Current weather by "City, St" or "zip code"  

 

Advertise Here

Hazardous Weather Conditions

Special Weather Statement issued April 28 at 1:48AM EDT

Current Conditions: NEW YORK, NEW YORK

Fog/Mist


58.0 F

Last Updated on Apr 28 2017, 1:51 am EDT
Humidity: 97%
Wind Speed: N 0.0 mph
Barometer 29.90 in
Dewpoint: 57.0 F
Visibility: 2.50 mi
Precip: --
Heat Index: NA
Wind Chill: NA
Current conditions at:

New York City, Central Park, NY (KNYC)

Lat: 40.78 Lon: -73.966

Local Radar Image active severe weather and emergency alerts image image weather storm and storm spotter reports image weather observation monitoring service image
Local
Radar
Active
Alerts
Storm Reports Weather
Monitoring

Weather Alert Notification Services


ialert severe weather and emergency alerts by text message and email ialert daily weather forecast by email and text message service ialert real-time weather-observation monitoring and alert notification service ialert storm report monitoring alert notification

Observation History for NEW YORK, NEW YORK


Time Wind
(mph)
Vis
(mi)
Weather Precip (in) Temperature (F) Relative
Humidity
Wind
Chill
(°F)
Heat
Index
(°F)
Pressure
Air Dwpt altimeter
(in)
sea level
(mb)
1:51 am EDT N 0.0 2.50 Fog/Mist -- 58.0 57.0 97% NA NA 29.90 1011.6
12:51 am EDT N 0.0 4.00 Fog/Mist -- 57.0 55.9 96% NA NA 29.90 1011.5
11:51 pm EDT N 0.0 4.00 Fog/Mist -- 57.0 55.9 96% NA NA 29.91 1012.0
10:51 pm EDT 3.5 4.00 Fog/Mist -- 57.0 55.9 96% NA NA 29.91 1012.0
9:51 pm EDT 5.8 3.00 Fog/Mist -- 57.0 57.0 100% 56 NA 29.93 1012.5
8:51 pm EDT 6.9 4.00 Fog/Mist -- 59.0 57.9 96% 58 NA 29.91 1011.9
7:51 pm EDT SE 8.1 2.50 Fog/Mist -- 60.0 60.1 100% 59 NA 29.90 1011.7
6:51 pm EDT 8.00 Overcast -- 62.0 57.0 84% NA NA 29.91 1011.8
5:51 pm EDT S 10.4 G 18.4 8.00 Overcast -- 61.0 57.0 87% 60 NA 29.91 1011.9
4:51 pm EDT S 8.1 G 17.3 7.00 Mostly Cloudy -- 65.0 57.9 78% NA NA 29.89 1011.3
3:51 pm EDT 3.5 8.00 Fair -- 67.0 57.9 73% NA NA 29.90 1011.5
2:51 pm EDT 7.00 A Few Clouds -- 68.0 57.0 68% NA NA 29.92 1012.2
1:51 pm EDT S 6.9 7.00 Overcast -- 68.0 57.0 68% NA NA 29.93 1012.5
12:51 pm EDT 4.6 6.00 Overcast with Haze -- 68.0 57.9 70% NA NA 29.93 1012.5
11:51 am EDT 4.6 7.00 Overcast -- 67.0 57.9 73% NA NA 29.94 1012.8
10:51 am EDT N 0.0 5.00 Fog/Mist -- 63.0 59.0 87% NA NA 29.94 1012.9
8:51 am EDT S 4.6 2.00 Fog/Mist -- 60.0 57.9 93% 60 NA 29.94 1013.1
7:51 am EDT N 0.0 1.25 Fog/Mist -- 59.0 59.0 100% NA NA 29.93 1012.7
6:51 am EDT N 0.0 2.50 Fog/Mist -- 59.0 57.9 96% NA NA 29.92 1012.1
5:51 am EDT N 0.0 1.50 Fog/Mist -- 59.0 57.9 96% NA NA 29.89 1011.2
4:51 am EDT N 0.0 2.00 Fog/Mist -- 59.0 57.9 96% NA NA 29.88 1010.9
3:51 am EDT N 0.0 2.00 Fog/Mist -- 59.0 57.9 96% NA NA 29.87 1010.7
2:51 am EDT N 0.0 2.00 Fog/Mist -- 59.0 57.9 96% NA NA 29.87 1010.6

Regional Weather Observation:


New York, La Guardia Airport, NY (KLGA)

Fog/Mist
59.0 F

Newark, Newark International Airport, NJ (KEWR)

Fog
56.0 F

New York, Kennedy International Airport, NY (KJFK)

Fog
56.0 F

Teterboro, Teterboro Airport, NJ (KTEB)

Fog/Mist
59.0 F

Caldwell, Essex County Airport, NJ (KCDW)

Fog/Mist
58.0 F

Morristown Municipal, NJ (KMMU)

Fog/Mist
57.0 F

Advertise Here


Advertise Here